Tracking 26940 objects as of 28-Jan-2023
HD Live streaming from Space Station
objects crossing your sky now

MOLNIYA 1-S

Track MOLNIYA 1-S now!
MOLNIYA 1-S is classified as:


NORAD ID: 7392
Int'l Code: 1974-060A
Perigee: 35,755.2 km
Apogee: 35,839.6 km
Inclination: 4.5 °
Period: 1,436.3 minutes
Semi major axis: 42168 km
RCS: 1.5848 m2 (large)
Launch date: July 29, 1974
Source: Commonwealth of Independent States (former USSR) (CIS)
Launch site: TYURATAM MISSILE AND SPACE COMPLEX (TTMTR)
Your satellite tracking list
Your tracking list is empty




NASA's NSSDC Master Catalog

Two Line Element Set (TLE):
1 07392U 74060A   23028.20258855  .00000151  00000-0  00000-0 0  9995
2 07392   4.5487 279.4602 0010005 215.4602 106.9201  1.00258620121778
Source of the keplerian elements: AFSPC